DECAYED

STARLINK-4042, 52661 (Decayed)

Orbit data source: Space-Track

STARLINK-4042, 52661 was a payload satellite owned by SpaceX/Seattle (US) in LEO that was launched on Wed, 18 May 2022 UTC via an FALCON 9 launch vehicle from the Air Force Eastern Test Range (AFETR). Payload-class satellites include a variety of spacecraft equipped with specific instruments for various scientific and technological missions. These include communications satellites like Starlink; space stations such as the ISS; scientific satellites like the Hubble; Earth observation satellites from companies like Planet Labs, Umbra, and HawkEye 360; GPS; miniature CubeSats for education and research; and military/defense satellites.

Not visible in the next 10 days
Identifier
52661, 2022-053F
Orbit
Decayed
Country
Flag of USUS
Related business
Manufacturer
SpaceX/Seattle
Mission
Decayed Commercial Communications
Bus & Motor
STARLINK, Unknown motor
Mass
297 kg wet, ~275 kg dry
Launch date (UTC)
2022-05-18 (4 years ago)
Launch vehicle
FALCON 9
Launch site
Air Force Eastern Test Range (AFETR)
Object type
Payload
Rocket body
Debris
Shape & HBR
Box + 1 Pan, 10.1 m
Radar Cross Section
13.562 m², Large (>1 m²)

Expand to show TLE details & history
Last TLE update: 4 months ago

TLE from 4 months ago
0 STARLINK-4042
1 52661U 22053F   26048.00118487  .11079108  12434-4  26683-3 0  9994
2 52661  53.1958 223.1513 0005184 205.0192 155.0609 16.45935209208254
Epoch: 2026-02-17T00:01Z
TLE epoch observation values (Epoch: 2026-02-17T00:01:42.372Z)
Latitude
-0.00001°
Longitude
75.73729°
Altitude
154.079 km
Speed
7.813 km/s
True Right ascension
14h 52m 36s
True Declination
0° 00' 00"
Sunlit
Object was in full shadow at epoch
Visualization orbit readout
Latitude
Unknown
Longitude
Unknown
Altitude
Unknown
Speed
Unknown
Apparent Right ascension
Unknown
Apparent Declination
Unknown
Sunlit
N/A
Visualization observer readout
Local Sidereal Time
21:31:25
Azimuth
Unknown
Elevation
Unknown
Doppler factor
Unknown
Orbital elements
Apogee altitude
153.709 km
Perigee altitude
146.94 km
Semi-major axis
6,528.461 km
Eccentricity
0.00052
Inclination
53.1958°
RAAN
223.1513°
Arg. of periapsis
205.0192°
True anomaly
155.08593°
Mean anomaly
155.0609°
Eccentric anomaly
155.07342°
Mean motion
4.11459 °/min
Orbital period
87.49 mins
BSTAR
0.00026683
Loading maneuver chart data...
Computing Atmospheric mass density...
Loading historical data...
Loading historical data...
Loading historical data...
Loading historical data...
Loading historical data...
Loading historical data...
Loading historical data...

Documentation

Showing up to 5 results
|